Regional Weather Roundup
Issued by NWS

Home | Current Version | Previous Version | Graphics & Text | Print | Product List | Glossary On
Versions: 1 2 3 4 5 6 7 8 9 10 11 12 13 14 15 16 17 18 19 20 21 22 23 24 25 26 27 28 29 30 31 32 33 34 35 36 37 38 39 40 41 42 43 44 45 46 47 48 49 50
000
ASUS43 KLSX 230807
RWRMO

WEATHER SUMMARY FOR MISSOURI
NATIONAL WEATHER SERVICE SPRINGFIELD MO
300 AM CDT MON APR 23 2018

NOTE: "FAIR" INDICATES FEW OR NO CLOUDS BELOW 12,000 FEET WITH NO
       SIGNIFICANT WEATHER AND/OR OBSTRUCTIONS TO VISIBILITY.
       CURRENT SKY AND/OR WEATHER CONDITIONS ARE NOT AVAILABLE FOR
       CHILLICOTHE AND FARMINGTON.

MOZ001>031-035>038-043-044-053-054-230900-
...NORTHERN AND WESTERN MISSOURI...

CITY           SKY/WX    TMP DP  RH WIND       PRES   REMARKS
KANSAS CTY INT CLOUDY    54  30  40 NE8       30.08F
KANSAS C DTWN  CLOUDY    59  28  30 NE8       30.07F
LEE`S SUMMIT   CLOUDY    55  32  41 NE9       30.06F
ST JOSEPH      CLEAR     49  29  46 N9        30.11F
CHILLICOTHE      N/A     57  29  34 N7        30.10F
KIRKSVILLE     CLOUDY    52  33  48 NE10      30.11F

$$
MOZ066>068-077>081-088>096-101>105-230900-
...SOUTHWEST MISSOURI...

CITY           SKY/WX    TMP DP  RH WIND       PRES   REMARKS
SPRINGFIELD    CLOUDY    51  50  96 NE10      29.95S
JOPLIN         CLOUDY    51  50  96 NW8       30.00F
BRANSON        CLOUDY    50  50 100 NW7       29.93F FOG

$$
MOZ032>034-039>042-045>050-055>058-069>072-230900-
...CENTRAL MISSOURI...

CITY           SKY/WX    TMP DP  RH WIND       PRES   REMARKS
COLUMBIA       CLOUDY    56  48  74 NE16G26   30.02F
JEFFERSON CITY CLOUDY    57  45  64 NE7       30.01F
ROLLA          CLOUDY    52  48  86 NE12      29.98F
SEDALIA        CLOUDY    57  41  55 NE12      30.04F
WHITEMAN AFB   CLOUDY    55  34  46 N8        30.00S
WARRENSBURG    CLOUDY    54  32  43 N6        30.05S
OSAGE BEACH    CLOUDY    53  52  96 NE10      29.99F

$$
MOZ051-052-059>065-230900-
...EAST CENTRAL MISSOURI...

CITY           SKY/WX    TMP DP  RH WIND       PRES   REMARKS
ST LOUIS INTL  LGT RAIN  57  38  48 NE12      30.01F
SPIRIT OF STL  CLOUDY    58  41  53 NE8       30.00F
ST CHARLES     CLOUDY    56  39  53 N14       30.01S

$$
MOZ072>076-082>087-097>100-106>115-230900-
...SOUTH CENTRAL AND SOUTHEAST MISSOURI...

CITY           SKY/WX    TMP DP  RH WIND       PRES   REMARKS
CAPE GIRARDEAU LGT RAIN  54  52  93 NE22      29.81F
FARMINGTON     LGT RAIN  52  50  93 NE14      29.93F
POPLAR BLUFF   RAIN      57  56  96 N12       29.80F FOG
WEST PLAINS    LGT RAIN  54  53  97 N9        29.89F FOG

$$




USA.gov is the U.S. government's official web portal to all federal, state and local government web resources and services.